Flag for U.S.A. Weather past 2 weeks in French Lick, Indiana, U.S.A.

Now
57 °F

Sunny.


Feels Like: 56 °F
Forecast: 39 / 60 °F
Wind: 7 mph from Northwest

Location: Huntingburg Airport

Current Time: Mar 30, 2015 at 12:41:25 PM

Latest Report: Mar 30, 2015 at 12:15 PM


Visibility: 10 mi

Pressure: 30.20 "Hg

Humidity: 41%

Dew point: 34 °F

Location of French LickLocation

Historic Weather in French Lick — Graph

°F

French Lick temperature yesterday

Maximum temperature yesterday: 57 °F (at 4:55 PM)
Minimum temperature yesterday: 25 °F (at 7:15 AM)
Average temperature yesterday: 42 °F

Past Weeks' High & Low Weather Summary

 TemperatureHumidityPressure
High73 °F (Mar 16, 2:35 PM)93% (Mar 21, 8:15 AM)30.36 "Hg (Mar 21, 8:15 AM)
Low21 °F (Mar 28, 6:55 AM)23% (Mar 22, 2:35 PM)29.86 "Hg (Mar 26, 6:15 AM)
Average46 °F60%30.12 "Hg
* Reported Mar 15 11:15 AM — Mar 30 11:35 AM, French Lick, Weather by CustomWeather, © 2015

Note: Actual official high and low records may vary slightly from our data, if they occured in-between our weather recording intervals... More about our weather records

Advertising

French Lick weather history for previous 24 hours

 ConditionsComfort  
Time TempWeatherWind HumidityBarometerVisibility
11:35 AM
Mon, Mar 30
55 °FSunny.8 mph47%30.20 "Hg10 mi
11:15 AM54 °FSunny.7 mph51%30.19 "Hg10 mi
10:55 AM52 °FSunny.8 mph54%30.19 "Hg10 mi
10:35 AM52 °FSunny.9 mph54%30.19 "Hg10 mi
10:15 AM52 °FSunny.9 mph54%30.18 "Hg10 mi
9:55 AM50 °FSunny.8 mph58%30.17 "Hg10 mi
9:35 AM48 °FSunny.10 mph62%30.17 "Hg10 mi
9:15 AM46 °FSunny.9 mph66%30.16 "Hg10 mi
8:55 AM45 °FSunny.6 mph71%30.15 "Hg10 mi
8:35 AM43 °FClear.7 mph76%30.15 "Hg10 mi
8:15 AM39 °FClear.6 mph81%30.14 "Hg10 mi
7:55 AM39 °FClear.7 mph75%30.13 "Hg10 mi
7:35 AM41 °FClear.5 mph76%30.11 "Hg10 mi
7:15 AM41 °FClear.5 mph76%30.10 "Hg10 mi
6:55 AM41 °FClear.6 mph76%30.08 "Hg10 mi
6:35 AM41 °FClear.6 mph76%30.07 "Hg10 mi
6:15 AM41 °FClear.5 mph76%30.06 "Hg10 mi
5:55 AM45 °FClear.5 mph71%30.05 "Hg10 mi
5:35 AM46 °FClear.8 mph71%30.05 "Hg10 mi
5:15 AM46 °FClear.10 mph71%30.04 "Hg10 mi
4:55 AM46 °FClear.8 mph71%30.04 "Hg10 mi
4:35 AM46 °FClear.9 mph76%30.04 "Hg10 mi
4:15 AM46 °FClear.9 mph76%30.04 "Hg10 mi
3:55 AM46 °FPassing clouds.9 mph76%30.04 "Hg10 mi
3:35 AM48 °FPassing clouds.9 mph76%30.04 "Hg10 mi
3:15 AM48 °FPassing clouds.10 mph76%30.04 "Hg10 mi
2:55 AM50 °FClear.12 mph71%30.04 "Hg10 mi
2:35 AM50 °FClear.13 mph76%30.05 "Hg10 mi
2:15 AM52 °FClear.14 mph72%30.05 "Hg10 mi
1:55 AM54 °FClear.18 mph67%30.05 "Hg10 mi
1:35 AM52 °FClear.13 mph72%30.05 "Hg10 mi
1:15 AM52 °FPassing clouds.14 mph72%30.05 "Hg10 mi
12:55 AM52 °FPassing clouds.14 mph72%30.05 "Hg10 mi
12:35 AM52 °FClear.15 mph72%30.05 "Hg10 mi
12:15 AM52 °FClear.13 mph67%30.05 "Hg10 mi
11:55 PM
Sun, Mar 29
52 °FClear.14 mph67%30.05 "Hg10 mi
11:35 PM52 °FPassing clouds.12 mph67%30.05 "Hg10 mi
11:15 PM52 °FPassing clouds.9 mph62%30.04 "Hg10 mi
10:55 PM52 °FClear.8 mph62%30.04 "Hg10 mi
10:35 PM52 °FClear.8 mph62%30.03 "Hg10 mi
9:55 PM52 °FPassing clouds.12 mph62%30.03 "Hg10 mi
9:35 PM54 °FPassing clouds.13 mph54%30.02 "Hg10 mi
9:15 PM55 °FPassing clouds.13 mph51%30.01 "Hg10 mi
8:55 PM55 °FPassing clouds.12 mph47%29.97 "Hg10 mi
8:35 PM55 °FSunny.13 mph47%29.92 "Hg10 mi
8:15 PM55 °FScattered clouds.10 mph44%29.95 "Hg10 mi
7:55 PM57 °FOvercast.10 mph41%30.00 "Hg10 mi
7:35 PM57 °FOvercast.9 mph41%30.00 "Hg10 mi
7:15 PM57 °FOvercast.9 mph39%30.00 "Hg10 mi
6:55 PM57 °FPartly sunny.14 mph36%29.99 "Hg10 mi
6:35 PM57 °FPassing clouds.13 mph36%29.98 "Hg10 mi
6:15 PM57 °FSunny.22 mph33%29.97 "Hg10 mi
5:55 PM57 °FSunny.22 mph33%29.97 "Hg10 mi
5:35 PM57 °FSunny.21 mph33%29.98 "Hg10 mi
4:55 PM57 °FSunny.23 mph31%29.98 "Hg10 mi
4:35 PM55 °FSunny.25 mph33%30.00 "Hg10 mi
4:15 PM55 °FSunny.23 mph33%30.02 "Hg10 mi
3:55 PM54 °FSunny.17 mph30%30.05 "Hg10 mi
3:35 PM54 °FSunny.14 mph30%30.07 "Hg10 mi
3:15 PM54 °FSunny.21 mph30%30.09 "Hg10 mi
2:55 PM52 °FSunny.20 mph30%30.12 "Hg10 mi
2:35 PM52 °FSunny.18 mph30%30.16 "Hg10 mi
2:15 PM52 °FSunny.17 mph32%30.18 "Hg10 mi
1:55 PM50 °FSunny.17 mph32%30.20 "Hg10 mi
1:35 PM48 °FSunny.18 mph34%30.22 "Hg10 mi
1:15 PM48 °FSunny.14 mph34%30.23 "Hg10 mi
12:55 PM46 °FSunny.15 mph37%30.24 "Hg10 mi
12:35 PM46 °FSunny.16 mph37%30.24 "Hg10 mi
12:15 PM45 °FSunny.16 mph39%30.26 "Hg10 mi
Weather by CustomWeather, © 2015

See weather overviewHow to use our weather pages